Flag for Mauritania Weather past 2 weeks in Nouadhibou, Mauritania

Now
73 °F

Clear.


Feels Like: 75 °F
Forecast: N/A
Wind: 9 mph from North

Location: Nouadhibou Airport

Current Time: Sep 3, 2015 at 10:37:16 PM

Latest Report: Sep 3, 2015 at 10:00 PM


Visibility: 5 mi

Pressure: 29.92 "Hg

Humidity: 74%

Dew point: 64 °F

Location of NouadhibouLocation

Historic Weather in Nouadhibou — Graph

°F

Nouadhibou temperature yesterday

Maximum temperature yesterday: 91 °F (at 12:00 PM)
Minimum temperature yesterday: 70 °F (at 4:00 AM)
Average temperature yesterday: 78 °F

Past Weeks' High & Low Weather Summary

 TemperatureHumidityPressure
High102 °F (Aug 22, 1:00 PM)88% (Aug 29, 3:00 AM)30.04 "Hg (Aug 29, 3:00 AM)
Low68 °F (Aug 29, 7:00 AM)23% (Aug 26, 1:00 PM)29.77 "Hg (Aug 22, 4:00 PM)
Average78 °F67%29.89 "Hg
* Reported Aug 19 9:00 PM — Sep 3 9:00 PM, Nouadhibou, Weather by CustomWeather, © 2015

Note: Actual official high and low records may vary slightly from our data, if they occured in-between our weather recording intervals... More about our weather records

Advertising

Nouadhibou weather history for previous 24 hours

 ConditionsComfort  
Time TempWeatherWind HumidityBarometerVisibility
9:00 PM
Thu, Sep 3
73 °FClear.12 mph74%29.89 "Hg5 mi
8:00 PM75 °FClear.15 mph69%29.89 "Hg5 mi
7:00 PM75 °FClear.17 mph69%29.86 "Hg5 mi
6:00 PM79 °FClear.16 mph61%29.86 "Hg5 mi
5:00 PM79 °FClear.20 mph65%29.86 "Hg5 mi
4:00 PM81 °FClear.17 mph62%29.89 "Hg5 mi
3:00 PM88 °FClear.9 mph49%29.89 "Hg5 mi
1:00 PM90 °FClear.6 mph46%29.92 "Hg5 mi
12:00 PM90 °FClear.6 mph46%29.92 "Hg5 mi
11:00 AM84 °FClear.9 mph58%29.95 "Hg5 mi
10:00 AM81 °FClear.10 mph70%29.95 "Hg5 mi
9:00 AM77 °FClear.9 mph74%29.95 "Hg4 mi
8:00 AM75 °FClear.8 mph74%29.92 "Hg4 mi
7:00 AM72 °FClear.9 mph78%29.89 "Hg4 mi
6:00 AM70 °FClear.8 mph83%29.89 "Hg4 mi
5:00 AM73 °FClear.3 mph78%29.89 "Hg4 mi
4:00 AM75 °FClear.No wind78%29.89 "Hg4 mi
2:00 AM72 °FClear.7 mph78%29.92 "Hg4 mi
1:00 AM75 °FClear.5 mph69%29.92 "Hg4 mi
12:00 AM75 °FClear.No wind69%29.95 "Hg4 mi
11:00 PM
Wed, Sep 2
75 °FClear.3 mph69%29.95 "Hg4 mi
10:00 PM77 °FClear.3 mph65%29.92 "Hg4 mi
Weather by CustomWeather, © 2015

See weather overviewHow to use our weather pages